Location: Unspecified
(0.0000°N, 0.0000°E)
Time: 07:32:17
(UTC+00:00)

LES 2 - Pass Details

Date: 10 October 2025
Orbit: 2783 x 14792 km, 32.1° (Epoch: 30 October)

Event Time Altitude Azimuth Distance (km) Brightness Sun altitude
Exits shadow 03:51:32 - 232° (SW) 7,086 ? -28.7°
Reaches altitude 10° 03:53:47 10° 226° (SW) 6,925 ? -28.1°
Maximum altitude 04:18:08 33° 160° (SSE) 8,616 ? -22.1°
Drops below altitude 10° 05:57:24 10° 88° (E) 18,995 ? 2.6°
Sets 06:36:38 0° 76° (ENE) 19,721 ? 12.3°
